FW4300 Weather Reports


Display with metric or nautical units.
time (UTC)temp
F
wind
direction
speed
MPH
gust
MPH
rain 1hr
in
rain 24hr
in
rain mn
in
humidity
%
barometer
mb
20260508102523 0 0.0 0.0 0.00 0.11 0.00 1016.5
20260508102021 0 0.0 0.0 0.00 0.11 0.00 1016.5
20260508101527 0 0.0 0.0 0.00 0.11 0.00 1016.5
20260508101019 0 0.0 0.0 0.00 0.11 0.00 1016.4
20260508100516 0 0.0 0.0 0.00 0.11 0.00 1016.4
20260508100016 0 0.0 0.0 0.00 0.11 0.00 1016.2
20260508095519 0 0.0 0.0 0.00 0.11 0.00 1016.3
20260508095013 0 0.0 0.0 0.00 0.11 0.00 1016.2
20260508094511 0 0.0 0.0 0.00 0.11 0.00 1016.3
20260508094009 0 0.0 0.0 0.00 0.11 0.00 1016.3
20260508093508 0 0.0 0.0 0.00 0.11 0.00 1016.2
20260508093012 0 0.0 0.0 0.00 0.11 0.00 1016.2
20260508092504 0 0.0 0.0 0.00 0.11 0.00 1016.2
20260508092003 0 0.0 0.0 0.00 0.11 0.00 1016.2
20260508091600 0 0.0 0.0 0.00 0.11 0.00 1016.1
20260508091059 0 0.0 0.0 0.00 0.11 0.00 1016.1
20260508090558 0 0.0 0.0 0.00 0.11 0.00 1016.1
20260508090100 0 0.0 0.0 0.00 0.11 0.00 1016.1
20260508085554 0 0.0 0.0 0.00 0.11 0.00 1016.0
20260508085052 0 0.0 0.0 0.00 0.11 0.00 1016.0
20260508084550 0 0.0 0.0 0.00 0.11 0.00 1015.9
20260508084050 0 0.0 0.0 0.00 0.11 0.00 1016.0
20260508083548 0 0.0 0.0 0.00 0.11 0.00 1016.0
20260508083047 0 0.0 0.0 0.00 0.11 0.00 1015.9
20260508082545 0 0.0 0.0 0.00 0.11 0.00 1016.0
20260508082042 0 0.0 0.0 0.00 0.11 0.00 1015.9
20260508081541 0 0.0 0.0 0.00 0.11 0.00 1016.0
20260508081038 0 332 0.0 0.0 0.00 0.11 0.00 1016.1
20260508080538 0 332 0.0 0.0 0.00 0.11 0.00 1015.9
20260508080035 69 329 0.0 0.0 0.00 0.11 0.00 78 1015.9
20260508075535 69 311 0.0 0.0 0.00 0.11 0.00 77 1015.9
20260508075031 69 310 0.0 0.0 0.00 0.11 0.00 77 1016.0
20260508074532 70 316 0.0 0.0 0.00 0.11 0.00 77 1015.9
20260508074029 70 324 0.0 0.0 0.00 0.11 0.00 77 1015.9
20260508073530 70 338 0.0 0.0 0.00 0.11 0.00 77 1015.9
20260508073029 70 329 0.0 0.0 0.00 0.11 0.00 77 1015.9
20260508072532 70 326 0.0 0.0 0.00 0.11 0.00 76 1016.0
20260508072026 70 326 0.0 0.0 0.00 0.11 0.00 77 1016.0
20260508071525 70 331 0.0 0.0 0.00 0.11 0.00 77 1016.0
20260508071023 70 331 0.0 0.0 0.00 0.11 0.00 77 1016.0
20260508070526 70 343 0.0 0.0 0.00 0.11 0.00 77 1016.1
20260508070022 70 326 0.0 0.0 0.00 0.11 0.00 77 1016.2
20260508065520 70 6 0.0 0.0 0.00 0.11 0.00 77 1016.3
20260508065022 70 342 0.0 0.0 0.00 0.11 0.00 77 1016.3
20260508064545 70 333 0.0 0.0 0.00 0.11 0.00 77 1016.3
20260508064017 70 329 0.0 0.0 0.00 0.11 0.00 77 1016.3
20260508063516 69 19 0.0 0.0 0.00 0.11 0.00 76 1016.4
20260508063017 70 283 0.0 0.0 0.00 0.11 0.00 76 1016.4
20260508062515 70 320 0.0 0.0 0.00 0.11 0.00 76 1016.3
20260508062013 70 322 0.0 0.0 0.00 0.11 0.00 76 1016.4
20260508061512 70 316 0.0 0.0 0.00 0.11 0.00 76 1016.4
20260508061015 70 322 0.0 0.0 0.00 0.11 0.00 76 1016.4
20260508060511 70 20 0.0 0.0 0.00 0.11 0.00 76 1016.5
20260508060007 70 326 0.0 0.0 0.00 0.11 0.00 75 1016.5
20260508055507 70 325 0.0 0.0 0.00 0.11 0.00 75 1016.5
20260508055005 70 311 0.0 0.0 0.00 0.11 0.00 75 1016.6
20260508054505 70 309 0.0 0.0 0.00 0.11 0.00 75 1016.5
20260508054003 70 309 0.0 0.0 0.00 0.11 0.00 75 1016.7
20260508053503 71 309 0.0 0.0 0.00 0.11 0.00 75 1016.6
20260508053002 71 309 0.0 0.0 0.00 0.11 0.00 75 1016.8
20260508052501 71 309 0.0 0.0 0.00 0.11 0.00 75 1016.8
20260508052059 71 309 0.0 0.0 0.00 0.11 0.00 75 1016.9
20260508051601 71 304 0.0 0.0 0.00 0.11 0.00 74 1016.9
20260508051056 71 297 0.0 0.0 0.00 0.11 0.00 74 1016.9
20260508050554 71 297 0.0 0.0 0.00 0.11 0.00 74 1016.9
20260508050056 71 298 0.0 0.0 0.00 0.11 0.00 74 1016.9
20260508045552 71 297 0.0 0.0 0.00 0.11 0.00 74 1016.9
20260508045052 71 297 0.0 0.0 0.00 0.11 0.00 74 1016.9
20260508044551 71 297 0.0 0.0 0.00 0.11 0.00 73 1017.0
20260508044050 71 295 0.0 0.0 0.00 0.11 0.00 72 1017.1
20260508043552 71 297 0.0 0.0 0.00 0.11 0.00 71 1017.1
20260508043051 72 298 0.0 0.0 0.00 0.11 0.00 70 1017.2
20260508042548 72 298 0.0 0.0 0.00 0.11 0.00 70 1017.2
20260508042044 72 298 0.0 0.0 0.00 0.11 0.00 69 1017.3
20260508041542 72 293 0.0 0.0 0.00 0.11 0.00 69 1017.4
20260508041043 73 293 0.0 0.0 0.00 0.11 0.00 69 1017.5
20260508040539 73 293 0.0 0.0 0.00 0.11 0.00 69 1017.5
20260508040048 73 289 0.0 0.0 0.00 0.11 0.00 69 1017.6
20260508035539 73 289 0.0 0.0 0.00 0.11 0.11 68 1017.8
20260508035033 74 289 0.0 0.0 0.00 0.11 0.11 68 1017.8
20260508034535 74 166 0.0 0.0 0.00 0.11 0.11 68 1017.8
20260508034034 74 151 0.0 0.0 0.00 0.11 0.11 68 1017.8
20260508033530 75 151 0.0 0.0 0.00 0.11 0.11 67 1017.8
20260508033032 75 150 0.0 0.0 0.00 0.11 0.11 67 1017.8
20260508032530 75 149 0.0 0.0 0.00 0.11 0.11 67 1017.8
20260508032029 75 184 0.0 0.0 0.00 0.11 0.11 67 1017.9
20260508031527 75 184 0.0 0.0 0.00 0.11 0.11 67 1017.9
20260508031026 75 184 0.0 0.0 0.00 0.11 0.11 67 1017.9
20260508030526 75 184 0.0 0.0 0.00 0.11 0.11 67 1017.9
20260508030030 76 176 0.0 0.0 0.00 0.11 0.11 67 1017.9
20260508025625 76 210 0.0 0.0 0.00 0.11 0.11 67 1017.9
20260508025025 76 138 0.0 0.0 0.00 0.11 0.11 67 1018.0
20260508024523 76 138 0.0 0.0 0.00 0.11 0.11 67 1018.0
20260508024023 76 124 0.0 0.0 0.00 0.11 0.11 67 1017.9
20260508023522 76 179 0.0 0.0 0.00 0.11 0.11 67 1018.1
20260508023021 76 117 0.0 0.0 0.00 0.11 0.11 67 1018.0
20260508022520 76 128 0.0 0.0 0.00 0.11 0.11 67 1017.9
20260508022021 76 124 0.0 0.0 0.00 0.11 0.11 67 1017.9
20260508021519 76 184 0.0 0.0 0.00 0.11 0.11 67 1017.9
20260508021026 77 224 0.0 0.0 0.00 0.11 0.11 66 1018.0
20260508020518 77 134 0.0 0.0 0.00 0.11 0.11 66 1017.9
20260508020018 76 124 0.0 0.0 0.00 0.11 0.11 67 1018.0
20260508015519 76 114 0.0 0.0 0.00 0.11 0.11 67 1018.1
20260508015019 76 124 0.0 0.0 0.00 0.11 0.11 67 1018.0
20260508014517 76 172 0.0 0.0 0.00 0.11 0.11 67 1018.0
20260508014016 76 172 0.0 0.0 0.00 0.11 0.11 68 1017.9
20260508013515 76 172 0.0 0.0 0.00 0.11 0.11 68 1017.9
20260508013014 76 152 0.0 0.0 0.00 0.11 0.11 68 1017.8
20260508012517 76 78 0.0 0.0 0.00 0.11 0.11 68 1017.8
20260508012014 76 129 0.0 0.0 0.00 0.11 0.11 68 1017.7
20260508011513 76 129 0.0 0.0 0.00 0.11 0.11 68 1017.7
20260508011013 76 129 0.0 0.0 0.00 0.11 0.11 68 1017.8
20260508010514 76 129 0.0 0.0 0.00 0.11 0.11 68 1017.8
20260508010022 76 144 0.0 0.0 0.00 0.11 0.11 68 1017.7
20260508005511 77 144 0.0 0.0 0.00 0.11 0.11 68 1017.7
20260508005011 77 144 0.0 0.0 0.00 0.11 0.11 68 1017.7
20260508004518 77 144 0.0 0.0 0.00 0.11 0.11 68 1017.6
20260508004010 77 148 0.0 0.0 0.00 0.11 0.11 68 1017.6
20260508003509 77 147 0.0 0.0 0.00 0.11 0.11 68 1017.5
20260508003008 77 130 0.0 0.0 0.00 0.11 0.11 68 1017.4
20260508002510 77 120 0.0 0.0 0.00 0.11 0.11 67 1017.5
20260508002008 77 120 0.0 0.0 0.00 0.11 0.11 67 1017.4
20260508001509 77 115 0.0 0.0 0.00 0.11 0.11 67 1017.4
20260508001007 77 122 0.0 0.0 0.00 0.11 0.11 67 1017.4
20260508000506 77 175 0.0 0.0 0.00 0.11 0.11 67 1017.4
20260508000007 77 219 0.0 0.0 0.00 0.11 0.11 67 1017.2
20260507235507 77 171 0.0 0.0 0.00 0.11 0.11 67 1017.2
20260507235009 77 117 0.0 0.0 0.00 0.11 0.11 67 1017.0
20260507234513 77 126 0.0 0.0 0.00 0.11 0.11 67 1016.9
20260507234006 78 141 0.0 0.0 0.00 0.11 0.11 67 1016.9
20260507233505 78 203 0.0 0.0 0.00 0.11 0.11 67 1016.9
20260507233008 78 175 0.0 0.0 0.00 0.11 0.11 67 1016.8
20260507232505 78 123 0.0 0.0 0.00 0.11 0.11 67 1016.8
20260507232006 78 109 0.0 0.0 0.00 0.11 0.11 67 1016.7
20260507231503 78 203 0.0 0.0 0.00 0.11 0.11 67 1016.6
20260507231004 78 153 0.0 0.0 0.00 0.11 0.11 67 1016.6
20260507230504 78 110 0.0 0.0 0.00 0.11 0.11 66 1016.4
20260507230004 79 127 0.0 0.0 0.00 0.11 0.11 66 1016.3
20260507225503 79 136 0.0 0.0 0.00 0.11 0.11 66 1016.4
20260507225003 79 141 0.0 0.0 0.00 0.11 0.11 66 1016.4
20260507224503 79 123 0.0 0.0 0.00 0.11 0.11 66 1016.4
20260507224003 79 118 0.0 0.0 0.00 0.11 0.11 66 1016.5
20260507223502 79 94 0.0 0.0 0.00 0.11 0.11 65 1016.4
20260507223002 79 117 0.0 0.0 0.00 0.11 0.11 65 1016.5
20260507222501 80 93 0.0 0.0 0.00 0.11 0.11 65 1016.4
20260507222002 80 82 0.0 0.0 0.00 0.11 0.11 65 1016.4
20260507221501 80 84 0.0 0.0 0.00 0.11 0.11 64 1016.4
20260507221101 80 87 0.0 0.0 0.00 0.11 0.11 64 1016.4
20260507220600 81 92 0.0 0.0 0.00 0.11 0.11 64 1016.3
20260507220059 81 110 0.0 0.0 0.00 0.11 0.11 64 1016.3
20260507215559 81 117 0.0 0.0 0.00 0.11 0.11 63 1016.3
20260507215059 82 83 0.0 0.0 0.00 0.11 0.11 63 1016.1
20260507214559 83 162 0.0 0.0 0.00 0.11 0.11 62 1016.0
20260507214104 83 143 0.0 0.0 0.00 0.11 0.11 61 1016.0
20260507213558 84 102 0.0 0.0 0.00 0.11 0.11 60 1015.9
20260507213059 84 117 0.0 0.0 0.00 0.11 0.11 60 1015.9
20260507212558 84 113 0.0 0.0 0.00 0.11 0.11 59 1015.8
20260507212059 84 114 0.0 0.0 0.00 0.11 0.11 59 1015.8
20260507211604 84 140 0.0 0.0 0.00 0.11 0.11 59 1015.7
20260507211056 84 183 0.0 0.0 0.00 0.11 0.11 60 1015.8
20260507210556 84 168 0.0 0.0 0.00 0.11 0.11 60 1015.7
20260507210056 84 108 0.0 0.0 0.00 0.11 0.11 60 1015.8
20260507205555 83 99 0.0 0.0 0.00 0.11 0.11 60 1015.8
20260507205054 83 130 0.0 0.0 0.00 0.11 0.11 60 1015.7
20260507204555 84 117 0.0 0.0 0.00 0.11 0.11 59 1015.7
20260507204056 84 221 0.0 0.0 0.00 0.11 0.11 59 1015.6
20260507203557 84 128 0.0 0.0 0.00 0.11 0.11 60 1015.7
20260507203054 84 136 0.0 0.0 0.00 0.11 0.11 59 1015.6
20260507202554 84 126 0.0 0.0 0.00 0.11 0.11 59 1015.7
20260507202051 84 144 0.0 0.0 0.00 0.11 0.11 59 1015.7
20260507201552 84 148 0.0 0.0 0.00 0.11 0.11 59 1015.8
20260507201151 85 114 0.0 0.0 0.00 0.11 0.11 58 1015.8
20260507200550 85 168 0.0 0.0 0.00 0.11 0.11 57 1015.8
20260507200051 85 154 0.0 0.0 0.00 0.11 0.11 57 1015.8
20260507195549 85 156 0.0 0.0 0.00 0.11 0.11 58 1015.8
20260507195049 85 116 0.0 0.0 0.00 0.11 0.11 58 1016.0
20260507194548 85 146 0.0 0.0 0.00 0.11 0.11 59 1016.0
20260507194047 85 117 0.0 0.0 0.00 0.11 0.11 61 1016.0
20260507193546 85 208 0.0 0.0 0.00 0.11 0.11 60 1016.1
20260507193055 85 179 0.0 0.0 0.00 0.11 0.11 61 1016.1
20260507192546 86 165 0.0 0.0 0.00 0.11 0.11 61 1016.1
20260507192044 85 209 0.0 0.0 0.00 0.11 0.11 61 1016.1
20260507191544 85 82 0.0 0.0 0.00 0.11 0.11 60 1016.2
20260507191042 85 158 0.0 0.0 0.00 0.11 0.11 61 1016.2
20260507190542 85 170 0.0 0.0 0.00 0.11 0.11 61 1016.2
20260507190042 85 207 0.0 0.0 0.00 0.11 0.11 61 1016.3
20260507185541 86 170 0.0 0.0 0.00 0.11 0.11 62 1016.3
20260507185042 86 141 0.0 0.0 0.00 0.11 0.11 61 1016.2
20260507184541 86 152 0.0 0.0 0.00 0.11 0.11 60 1016.3
20260507184040 86 165 0.0 0.0 0.00 0.11 0.11 60 1016.2
20260507183538 86 153 0.0 0.0 0.00 0.11 0.11 61 1016.4
20260507183037 86 158 0.0 0.0 0.00 0.11 0.11 61 1016.3
20260507182537 85 149 0.0 0.0 0.00 0.11 0.11 62 1016.4
20260507182134 85 170 0.0 0.0 0.00 0.11 0.11 62 1016.6
20260507181534 85 143 0.0 0.0 0.00 0.11 0.11 62 1016.6
20260507181031 85 124 0.0 0.0 0.00 0.11 0.11 63 1016.7
20260507180528 84 124 0.0 0.0 0.00 0.11 0.11 63 1016.8
20260507180028 85 191 0.0 0.0 0.00 0.11 0.11 62 1017.0
20260507175527 84 154 0.0 0.0 0.00 0.11 0.11 63 1017.0
20260507175027 84 221 0.0 0.0 0.00 0.11 0.11 63 1017.1
20260507174542 85 197 0.0 0.0 0.00 0.11 0.11 64 1017.0
20260507174024 84 132 0.0 0.0 0.00 0.11 0.11 64 1017.0
20260507173525 83 166 0.0 0.0 0.00 0.11 0.11 65 1017.0
20260507173025 83 124 0.0 0.0 0.00 0.11 0.11 65 1017.2
20260507172521 82 137 0.0 0.0 0.00 0.11 0.11 65 1017.3
20260507172024 82 173 0.0 0.0 0.00 0.11 0.11 66 1017.4
20260507171520 82 103 0.0 0.0 0.00 0.11 0.11 66 1017.5
20260507171020 81 123 0.0 0.0 0.01 0.11 0.11 66 1017.6
20260507170518 81 186 0.0 0.0 0.01 0.11 0.11 65 1017.7
20260507170020 81 237 0.0 0.0 0.01 0.11 0.11 66 1017.8
20260507165524 81 188 0.0 0.0 0.01 0.11 0.11 66 1017.9
20260507165018 81 165 0.0 0.0 0.01 0.11 0.11 66 1018.0
20260507164516 81 139 0.0 0.0 0.01 0.11 0.11 66 1018.1
20260507164015 80 172 0.0 0.0 0.01 0.11 0.11 67 1018.1
20260507163516 80 137 0.0 0.0 0.01 0.11 0.11 68 1018.2
20260507163019 80 105 0.0 0.0 0.01 0.11 0.11 69 1018.2
20260507162514 79 191 0.0 0.0 0.01 0.11 0.11 69 1018.3
20260507162012 79 215 0.0 0.0 0.01 0.11 0.11 68 1018.5
20260507161514 79 173 0.0 0.0 0.00 0.10 0.10 69 1018.5
20260507161013 79 175 0.0 0.0 0.04 0.10 0.10 68 1018.5
20260507160512 79 79 0.0 0.0 0.08 0.10 0.10 68 1018.6
20260507160012 79 66 0.0 0.0 0.09 0.10 0.10 68 1018.5
20260507155511 79 219 0.0 0.0 0.09 0.10 0.10 68 1018.5
20260507155007 78 160 0.0 0.0 0.09 0.10 0.10 68 1018.6
20260507154509 78 146 0.0 0.0 0.09 0.10 0.10 69 1018.6
20260507154007 78 155 0.0 0.0 0.09 0.10 0.10 69 1018.7
20260507153505 78 124 0.0 0.0 0.09 0.10 0.10 69 1018.7
20260507153005 78 203 0.0 0.0 0.09 0.10 0.10 69 1018.7
20260507152504 78 203 0.0 0.0 0.09 0.10 0.10 69 1018.7
20260507152005 78 125 0.0 0.0 0.09 0.10 0.10 68 1018.8
20260507151502 78 203 0.0 0.0 0.08 0.09 0.09 68 1018.8
20260507151003 79 169 0.0 0.0 0.05 0.06 0.06 67 1018.7
20260507150502 79 208 0.0 0.0 0.01 0.02 0.02 67 1018.7
20260507150003 80 172 0.0 0.0 0.00 0.01 0.01 67 1018.7
20260507145603 80 169 0.0 0.0 0.00 0.01 0.01 66 1018.7
20260507145004 80 110 0.0 0.0 0.00 0.01 0.01 67 1018.6
20260507144501 80 111 0.0 0.0 0.00 0.01 0.01 66 1018.6
20260507144100 80 153 0.0 0.0 0.00 0.01 0.01 66 1018.7
20260507143600 81 118 0.0 0.0 0.00 0.01 0.01 66 1018.7
20260507143201 81 161 0.0 0.0 0.00 0.01 0.01 65 1018.7
20260507142659 82 150 0.0 0.0 0.00 0.01 0.01 66 1018.8
20260507142057 80 163 0.0 0.0 0.00 0.01 0.01 67 1018.8
20260507141619 80 137 0.0 0.0 0.00 0.01 0.01 66 1018.8
20260507141054 80 143 0.0 0.0 0.00 0.01 0.01 67 1018.9
20260507140554 80 133 0.0 0.0 0.00 0.01 0.01 67 1018.8
20260507140110 80 140 0.0 0.0 0.00 0.01 0.01 67 1018.8
20260507135552 80 112 0.0 0.0 0.00 0.01 0.01 67 1018.8
20260507135051 80 139 0.0 0.0 0.00 0.01 0.01 67 1018.7
20260507134551 80 109 0.0 0.0 0.00 0.01 0.01 67 1018.7
20260507134051 80 103 0.0 0.0 0.00 0.01 0.01 67 1018.7
20260507133551 81 181 0.0 0.0 0.00 0.01 0.01 66 1018.6
20260507133056 81 192 0.0 0.0 0.00 0.01 0.01 66 1018.5
20260507132548 82 143 0.0 0.0 0.00 0.01 0.01 65 1018.6
20260507132048 82 153 0.0 0.0 0.00 0.01 0.01 65 1018.5
20260507131612 82 172 0.0 0.0 0.00 0.01 0.01 64 1018.4
20260507131047 83 115 0.0 0.0 0.01 0.01 0.01 64 1018.3
20260507130544 82 116 0.0 0.0 0.01 0.01 0.01 65 1018.3
20260507130044 82 140 0.0 0.0 0.01 0.01 0.01 64 1018.4
20260507125543 82 158 0.0 0.0 0.01 0.01 0.01 64 1018.3
20260507125043 82 121 0.0 0.0 0.01 0.01 0.01 64 1018.4
20260507124642 82 139 0.0 0.0 0.01 0.01 0.01 64 1018.4
20260507124039 81 115 0.0 0.0 0.01 0.01 0.01 65 1018.4
20260507123539 80 166 0.0 0.0 0.01 0.01 0.01 66 1018.3
20260507123043 80 98 0.0 0.0 0.01 0.01 0.01 66 1018.2
20260507122536 80 129 0.0 0.0 0.01 0.01 0.01 65 1018.1
20260507122037 81 162 0.0 0.0 0.01 0.01 0.01 65 1018.0
20260507121534 80 124 0.0 0.0 0.01 0.01 0.01 66 1018.0
20260507121033 80 125 0.0 0.0 0.00 0.00 0.00 66 1017.9
20260507120531 80 126 0.0 0.0 0.00 0.00 0.00 66 1017.9
20260507120032 79 120 0.0 0.0 0.00 0.00 0.00 68 1017.9
20260507115527 79 126 0.0 0.0 0.00 0.00 0.00 68 1017.9
20260507115027 79 127 0.0 0.0 0.00 0.00 0.00 68 1017.9
20260507114526 79 127 0.0 0.0 0.00 0.00 0.00 68 1017.9
20260507114026 79 210 0.0 0.0 0.00 0.00 0.00 68 1017.8
20260507113525 79 129 0.0 0.0 0.00 0.00 0.00 68 1017.7
20260507113056 79 151 0.0 0.0 0.00 0.00 0.00 68 1017.7
20260507112525 79 188 0.0 0.0 0.00 0.00 0.00 68 1017.7
20260507112023 79 132 0.0 0.0 0.00 0.00 0.00 68 1017.7
20260507111523 79 160 0.0 0.0 0.00 0.00 0.00 69 1017.6
20260507111018 78 195 0.0 0.0 0.00 0.00 0.00 70 1017.5
20260507110516 78 113 0.0 0.0 0.00 0.00 0.00 74 1017.7
20260507110014 77 125 0.0 0.0 0.00 0.00 0.00 76 1017.7
20260507105513 77 165 0.0 0.0 0.00 0.00 0.00 77 1017.7
20260507105011 76 134 0.0 0.0 0.00 0.00 0.00 77 1017.6
20260507104514 76 139 0.0 0.0 0.00 0.00 0.00 77 1017.6
20260507104010 76 136 0.0 0.0 0.00 0.00 0.00 77 1017.6
20260507103507 0 0.0 0.0 0.00 0.00 0.00 1017.5
20260507103006 0 0.0 0.0 0.00 0.00 0.00 1017.5